Theta_e
340 350 361 358 359 359 359 358 358 359 358 357 357 359 356 356 357 357 356 355 354 353 352 351 350 354 354 354 353 352 353 353 353 353 352 352 352 353 353 353 352 347 351
343 353 360 357 357 357 357 357 359 359 358 359 357 356 356 356 356 356 356 356 354 352 352 352 350 352 352 353 353 353 352 352 352 352 351 351 352 352 351 352 354 349 352
346 352 354 358 355 356 360 360 358 358 358 358 357 356 355 356 355 355 355 354 353 352 351 349 349 352 353 354 352 352 352 351 351 350 349 343 345 350 351 351 351 352 352
349 351 351 356 357 358 357 357 357 356 357 358 356 355 354 356 355 354 355 354 353 351 351 349 350 353 352 352 352 352 351 351 350 348 342 342 344 350 349 349 350 350 350
348 350 351 358 358 358 356 354 354 354 354 354 354 356 353 356 355 354 355 354 354 352 350 349 351 352 352 351 352 351 351 350 348 344 341 341 342 347 348 347 347 348 350
347 347 354 358 357 356 355 355 355 354 353 353 353 353 355 355 354 353 355 354 353 351 350 349 350 351 351 351 350 350 349 348 345 339 339 342 341 348 348 346 345 345 348
345 347 353 357 355 355 353 353 354 353 352 351 352 354 353 355 354 354 354 353 353 351 350 349 349 348 349 349 349 348 347 346 338 337 338 340 342 346 346 345 343 346 346
346 349 353 358 358 357 354 352 350 351 353 352 350 351 354 355 355 354 354 353 352 351 350 349 347 346 346 347 348 346 345 344 338 336 337 338 345 344 345 342 342 343 344
347 351 353 354 356 359 358 355 351 351 353 352 353 351 352 354 355 354 353 352 352 351 350 348 346 344 343 347 348 346 344 342 335 336 338 338 345 343 343 341 339 339 342
347 351 351 352 354 355 354 357 356 353 355 353 351 353 355 355 355 354 353 352 352 352 350 348 346 343 341 344 347 345 343 340 334 335 336 338 342 342 342 339 337 337 337
343 346 352 351 351 350 351 354 356 355 356 355 353 355 352 347 349 350 350 352 351 350 350 349 347 344 341 342 343 343 339 333 333 333 335 343 341 340 340 339 338 338 336
337 342 349 350 349 349 353 347 348 349 347 346 347 347 345 343 344 348 349 351 351 350 350 349 346 345 334 326 331 338 332 332 332 333 335 342 339 339 339 338 338 338 339
338 342 346 348 349 348 348 346 344 344 343 343 343 343 343 342 342 343 342 344 343 349 343 345 340 337 328 326 323 329 330 330 331 332 338 341 339 336 338 338 338 339 339
338 340 344 346 346 345 345 344 343 343 341 340 341 340 340 337 336 337 337 338 339 340 338 337 336 334 330 330 327 328 327 328 329 331 337 340 339 337 338 338 338 338 337
337 340 342 344 344 344 343 342 341 340 341 338 339 340 338 335 334 334 335 336 338 338 335 334 333 332 329 327 325 328 325 326 327 330 332 340 340 337 337 336 338 337 336
337 339 342 341 343 343 342 341 340 338 338 338 338 338 339 336 335 335 334 335 334 335 335 333 332 330 327 321 324 328 325 324 325 328 331 335 339 337 337 336 337 336 336
336 338 339 341 341 340 340 340 339 338 338 336 336 337 338 336 334 333 333 333 333 334 334 333 330 326 322 322 321 323 324 325 325 329 330 331 334 338 337 335 336 336 335
333 335 337 342 340 340 338 337 338 337 336 336 336 335 336 336 334 332 331 330 332 331 331 330 326 321 318 319 318 320 322 323 325 326 329 329 328 330 334 336 335 335 334
316 333 335 339 339 339 337 335 334 335 333 333 333 334 335 334 333 329 329 329 330 328 327 327 326 319 316 317 321 322 322 324 324 328 325 327 327 326 327 333 334 334 333
309 329 335 339 339 338 333 330 330 329 330 331 331 331 333 333 331 328 326 328 328 326 324 323 320 317 316 320 323 322 322 322 324 323 324 326 326 326 327 327 327 329 332
308 328 333 336 337 334 330 329 327 328 325 326 328 330 331 331 330 327 326 326 326 324 323 321 318 316 319 318 320 319 320 322 323 323 322 323 324 326 325 326 326 327 328
309 326 332 334 333 335 334 330 328 326 323 324 326 327 328 329 329 326 325 324 323 322 322 320 318 317 315 317 317 316 313 317 320 322 324 324 324 325 324 325 323 325 325
309 324 332 333 333 334 332 326 324 323 322 321 321 322 325 327 326 326 324 324 322 321 320 319 318 317 314 318 319 316 311 309 314 319 321 322 323 322 322 323 323 323 322
308 322 331 333 332 332 330 328 326 324 320 319 320 322 323 325 324 325 325 324 324 321 319 319 320 319 320 317 317 318 315 315 309 310 317 319 320 321 321 322 321 323 321
311 320 329 331 331 330 329 328 324 318 318 318 320 321 320 321 323 323 326 324 324 321 320 320 321 322 321 319 316 313 311 312 312 310 310 313 318 320 321 320 319 321 321
315 320 323 328 328 328 325 323 322 319 317 317 316 317 316 317 320 325 326 324 322 320 320 324 323 322 321 320 318 314 313 312 309 307 306 311 313 316 319 319 318 319 320
Wind_Speed
5 7 17 16 13 11 11 11 11 10 11 9 9 10 10 9 9 10 11 12 11 11 12 11 12 13 13 13 13 10 14 15 16 16 16 16 17 19 20 20 20 15 23
11 9 17 16 14 13 12 11 10 12 12 10 10 8 9 9 9 8 9 11 12 10 11 12 11 12 12 12 12 14 14 15 15 14 13 11 14 18 19 20 20 19 23
14 10 12 15 15 14 13 12 12 10 11 12 10 9 7 8 9 8 8 10 12 10 11 11 11 11 12 14 13 14 15 15 15 15 14 6 7 18 19 19 20 22 23
14 11 10 17 15 14 13 12 12 8 9 11 10 8 6 9 8 8 8 10 11 10 11 10 11 12 12 13 14 15 15 16 15 14 6 7 7 18 20 19 20 21 22
12 9 10 16 15 13 13 13 13 11 9 9 8 8 6 7 9 7 8 10 11 11 10 10 10 11 12 13 14 15 15 15 14 10 6 6 5 15 19 18 16 18 21
10 8 13 16 15 15 15 14 13 12 10 10 10 7 6 7 8 7 7 10 11 10 10 10 10 10 11 11 13 14 14 14 12 6 6 7 6 18 19 18 17 18 19
8 6 11 17 16 15 14 13 12 11 10 9 8 7 8 7 8 7 8 9 11 10 9 10 9 8 10 9 11 12 12 14 6 6 6 6 8 19 19 17 17 18 18
12 10 9 14 14 13 13 13 12 11 10 9 9 6 4 8 8 8 8 9 9 9 9 9 8 7 9 8 10 9 10 10 6 6 6 5 13 16 17 16 16 17 18
9 10 10 10 12 15 12 11 11 12 11 10 9 8 5 5 8 9 9 9 9 9 8 8 8 7 8 8 11 11 10 7 5 4 5 3 13 16 17 15 15 15 18
8 9 8 7 8 7 8 13 11 10 10 10 8 6 6 5 9 9 9 8 8 9 8 7 7 7 8 8 10 11 10 8 4 3 3 4 13 15 16 14 14 15 17
6 8 8 8 6 6 6 8 11 11 9 9 6 6 4 3 5 7 7 8 9 8 8 7 6 7 7 7 8 10 9 3 3 2 2 11 13 14 15 15 15 15 15
11 9 8 9 9 7 6 5 6 5 4 4 4 3 3 3 3 5 5 8 9 9 8 7 5 8 7 3 3 6 3 4 3 2 2 10 13 14 14 14 14 14 16
13 9 12 11 10 10 7 5 3 3 3 3 5 5 4 3 2 1 1 2 3 6 3 4 1 4 4 4 3 2 3 4 2 2 5 10 13 13 13 13 14 16 17
13 14 12 11 10 10 5 5 6 5 4 3 4 5 4 2 3 2 2 4 3 2 3 2 2 5 2 2 3 5 4 3 2 2 4 10 14 13 13 13 15 16 16
11 13 14 12 10 10 9 5 5 5 4 4 4 5 4 3 3 3 4 3 3 3 3 3 2 2 3 1 0 6 5 4 5 2 1 10 12 14 13 13 14 16 15
13 12 12 12 11 9 8 9 7 5 6 4 3 4 5 3 4 3 3 4 3 3 2 3 3 3 2 0 1 5 5 4 4 4 2 4 11 12 14 15 14 15 15
12 10 12 14 9 10 11 9 6 6 5 5 4 5 6 5 5 5 4 3 3 3 4 3 3 3 3 2 3 3 5 4 5 3 2 3 5 10 12 14 15 15 15
13 13 14 13 13 12 8 6 5 5 4 4 5 4 6 6 6 5 4 3 4 3 3 3 3 3 3 2 3 1 3 4 4 4 3 3 2 3 8 12 15 15 16
12 13 14 14 15 14 9 6 5 6 5 4 4 5 6 6 6 4 4 3 4 3 3 3 2 3 2 3 4 3 3 2 3 3 3 4 4 4 3 8 11 14 16
11 12 14 14 14 12 6 5 3 3 4 4 4 5 6 5 6 4 3 4 4 3 3 3 3 3 3 3 5 5 4 3 3 3 2 2 3 5 5 4 5 6 14
7 9 13 14 13 11 6 6 4 5 3 3 3 6 6 6 6 5 4 4 4 4 4 4 4 5 3 1 4 3 4 4 3 2 2 1 3 3 4 4 3 3 4
9 13 14 15 15 13 10 5 4 4 2 2 3 4 5 6 6 5 5 4 4 4 5 5 5 3 2 2 3 2 2 1 2 2 1 1 3 3 4 4 3 4 4
9 13 16 17 17 13 12 7 5 5 4 2 2 3 4 5 5 6 6 5 6 4 4 4 5 5 4 2 1 3 2 3 2 1 0 2 5 3 3 2 4 4 4
11 11 15 16 18 14 15 12 14 9 7 4 4 4 4 6 5 5 6 6 6 4 5 4 4 3 3 3 1 0 2 2 3 1 0 1 2 3 4 3 3 3 2
5 11 12 15 14 13 15 13 9 5 3 3 3 6 4 4 5 5 5 6 6 4 5 5 5 4 3 3 2 2 2 2 2 2 2 2 1 1 3 3 3 3 4
4 5 8 11 14 13 13 10 11 10 7 5 4 4 4 2 3 4 5 4 4 4 4 4 4 4 4 3 3 2 3 3 2 2 2 1 2 2 1 2 2 2 3
Wind_Direction
199 181 163 161 160 149 148 147 149 134 127 128 117 119 112 112 107 118 113 104 94 89 85 81 82 73 62 54 64 83 77 67 61 56 53 52 55 56 50 45 42 41 39
148 169 163 161 160 159 162 155 154 144 130 138 117 113 131 123 116 114 118 111 94 86 82 81 79 74 62 54 65 77 75 72 64 56 45 40 55 56 49 44 45 41 38
147 157 163 162 161 165 151 154 146 139 144 127 128 128 118 122 121 122 109 112 98 88 85 78 81 74 60 67 72 84 78 73 61 50 42 9 45 55 50 45 47 45 42
150 158 163 164 166 163 159 152 139 142 131 134 135 132 157 144 130 125 119 117 106 93 86 82 81 69 62 69 77 86 81 74 63 53 34 27 40 56 50 38 42 46 41
150 155 166 166 168 164 160 161 160 158 144 134 139 159 166 146 133 139 134 125 112 104 95 85 84 72 66 75 80 83 79 75 66 48 32 35 25 56 50 43 38 42 43
148 156 171 168 167 168 166 164 160 158 159 155 155 157 151 151 143 148 148 129 119 112 106 99 86 74 69 70 82 83 82 79 67 47 36 34 44 60 53 41 42 43 44
145 161 169 171 173 171 171 172 171 167 167 164 170 168 168 163 154 153 142 141 130 124 117 106 98 85 71 69 91 89 91 84 66 53 43 34 56 63 56 44 41 40 43
159 166 170 176 176 175 174 171 170 172 170 172 173 186 173 164 171 157 149 152 143 134 121 114 107 93 81 78 107 96 82 79 72 67 49 48 63 63 58 50 44 43 44
166 167 171 178 181 177 176 176 174 173 179 183 180 178 181 159 172 161 157 163 158 142 134 125 117 100 88 89 104 98 85 79 73 75 74 58 68 66 62 53 50 50 50
166 174 178 172 179 178 173 173 180 180 189 180 189 196 173 162 146 171 164 171 170 166 150 139 122 112 99 101 106 104 99 78 54 63 73 74 76 69 71 58 52 55 58
169 170 169 166 172 166 170 175 181 180 185 184 186 178 166 150 143 158 163 180 179 173 166 163 144 115 100 98 104 118 106 89 60 39 43 78 77 73 71 68 61 56 58
179 174 171 169 171 167 172 173 169 176 179 182 185 183 159 168 162 163 175 187 187 184 185 183 170 112 91 74 61 107 108 114 84 52 51 89 84 78 71 72 72 63 63
180 176 180 181 179 175 180 170 163 165 174 183 186 189 190 176 186 161 171 190 191 195 176 184 153 81 98 97 85 131 135 124 106 60 89 101 90 80 80 73 70 72 66
179 189 189 190 180 180 173 178 172 178 176 186 196 189 172 180 181 198 219 180 196 172 182 166 135 108 106 119 164 168 149 139 123 83 120 114 109 100 94 78 75 71 70
190 197 191 182 189 188 174 172 175 181 178 199 184 188 179 183 192 185 226 193 173 168 205 157 136 114 119 297 67 155 153 146 127 121 113 128 121 116 107 93 88 81 73
207 203 185 187 193 182 181 178 183 187 177 174 181 194 177 175 176 187 168 183 180 176 186 156 156 136 117 298 218 136 144 135 132 141 152 133 131 125 118 109 99 96 87
207 199 184 190 186 180 189 189 174 181 172 162 173 175 173 175 186 180 175 172 172 180 166 134 101 93 88 43 91 118 144 151 137 153 131 115 137 130 128 118 110 101 96
208 197 191 191 182 180 189 184 174 170 170 167 155 169 172 169 173 171 161 171 166 157 151 135 113 88 87 87 75 38 119 132 136 148 135 127 122 108 133 129 124 117 103
198 205 196 190 180 184 172 180 169 169 164 180 155 159 168 158 168 161 165 169 161 138 113 123 102 105 104 83 80 61 52 96 132 129 161 138 156 109 111 134 124 122 116
205 191 195 189 182 169 150 120 107 132 133 143 156 154 155 163 155 149 152 159 135 119 125 114 113 81 112 115 91 70 49 49 34 329 161 171 127 129 131 136 125 132 128
209 177 183 183 174 148 153 149 157 169 153 141 147 146 140 136 147 149 142 126 132 143 143 120 94 99 105 122 105 64 43 55 64 60 19 74 138 134 141 128 120 124 138
195 191 179 184 171 170 166 165 139 135 100 102 133 139 137 146 158 155 144 156 150 126 123 133 130 123 110 215 115 95 170 28 60 31 37 133 84 81 58 66 89 130 139
190 189 180 183 177 170 149 118 95 79 64 99 148 133 157 153 161 157 164 159 150 138 148 162 156 162 149 185 141 129 153 189 129 20 294 258 134 123 93 75 87 31 32
202 191 187 180 171 164 151 157 166 166 166 182 151 150 150 147 159 174 164 155 151 145 160 167 174 169 124 159 114 117 43 117 157 174 97 318 135 161 154 125 125 127 61
203 184 185 169 171 160 160 163 154 135 122 119 117 134 138 146 151 165 159 150 149 158 182 181 172 155 153 143 143 151 95 59 57 129 174 179 161 188 164 157 153 158 142
77 149 142 169 160 156 147 140 144 142 141 130 129 134 144 139 153 175 163 162 145 166 177 191 149 159 177 160 137 170 151 163 190 133 122 144 143 167 153 148 172 178 163